WHDW 08-07

operational
NORAD ID: 65170 Int'l Des: 2025-174 Owner: ZXW Country: CN
LEOCIRCULARPOLARONEWEB_TYPE

Über WHDW 08-07

Beschreibung wird geladen...

Live-Position

3D-Globus wird geladen...

Nächste Überflüge

Höhenverlauf

Altitude vs Time

uPlot chart will show altitude changes over time

Zweizeiliger Elementsatz

1 65170U 25174G 26063.14866676 .00000050 00000-0 82066-4 0 9990
2 65170 86.4883 287.4508 0001171 89.0496 271.0772 13.24421619 26881
Epoch: 4. März 2026 • Age: 12 hours

Aktueller Status

Höhe 1193.0 km
Geschwindigkeit 7.26 km/s
Subsatellitenpunkt -63.50°S, 131.4°E
Startdatum 13. Aug. 2025
Alter 0.5 years
Typ other

Technische Details

Klassifizierung Payload
Masse 800.00 kg
Trockenmasse 800.00 kg
Gesamtmasse 800.00 kg
Länge 3.00 m
Durchmesser 1.00 m
Spannweite 10.00 m
Form Box + 2 Pan
Hersteller CAST
Bus-Typ Xingwang CL
Phasenstatus In Orbit
Besitzer/Staat ZXW/CN

Große Konstellationen

Loading constellations...